Weather reports worldwide

Advertisment
Huesca, Spain (8094): temperature & dewpoint: 12.07.2019 07:00:00 - 18.07.2019 07:00:00 (CEST)Huesca, Spain (8094): wind speed: 12.07.2019 07:00:00 - 18.07.2019 07:00:00 (CEST)Huesca, Spain (8094): wind direction: 12.07.2019 07:00:00 - 18.07.2019 07:00:00 (CEST)Huesca, Spain (8094): reduced air pressure: 12.07.2019 07:00:00 - 18.07.2019 07:00:00 (CEST)Huesca, Spain (8094): visibility: 12.07.2019 07:00:00 - 18.07.2019 07:00:00 (CEST)Huesca, Spain (8094): precipitation: 12.07.2019 07:00:00 - 18.07.2019 07:00:00 (CEST)
Date & Time tt [°C] td [°C] ff [km/h] ff [kn] dd ppp [hPa] vv [km] rr [mm]
18.07.2019 07:00:00 15,9 14,4 5 3 NW 1015,6 - 0,0
18.07.2019 06:00:00 16,6 14,4 8 4 W 1015,1 - 0,0
18.07.2019 05:00:00 17,3 14,6 8 4 W 1014,8 - -
18.07.2019 04:00:00 17,7 14,8 5 3 W 1014,5 - 0,0
18.07.2019 03:00:00 18,5 14,8 5 3 WSW 1014,4 - 0,0
18.07.2019 02:00:00 19,5 14,7 5 3 W 1014,5 - -
18.07.2019 01:00:00 20,8 14,9 5 3 WNW 1014,3 - 0,0
18.07.2019 00:00:00 22,9 15,0 5 3 WSW 1013,6 - 0,0
17.07.2019 23:00:00 24,1 15,3 8 4 S 1013,0 - -
17.07.2019 22:00:00 25,3 16,7 5 3 ESE 1011,8 - 0,0
17.07.2019 21:00:00 27,7 13,2 5 3 SSE 1010,8 - 0,0
17.07.2019 20:00:00 29,8 13,5 8 4 WSW 1009,9 - -
17.07.2019 19:00:00 31,0 12,8 9 5 WSW 1009,5 - 0,0
17.07.2019 18:00:00 31,4 14,1 8 4 SSW 1009,7 - 0,0
17.07.2019 17:00:00 30,6 14,7 5 3 SW 1010,2 40 -
17.07.2019 16:00:00 30,3 15,6 8 4 W 1010,4 - 0,0
17.07.2019 15:00:00 28,6 14,8 9 5 W 1011,6 - 0,0
17.07.2019 14:00:00 27,8 17,6 8 4 WSW 1012,3 28 -
17.07.2019 13:00:00 25,9 17,3 8 4 WSW 1013,3 - 0,0
17.07.2019 12:00:00 24,7 17,9 8 4 SW 1013,7 - 0,0
17.07.2019 11:00:00 22,6 17,5 4 2 WNW 1014,3 25 -
17.07.2019 10:00:00 21,6 18,2 5 3 NW 1014,6 - 0,0
17.07.2019 09:00:00 20,3 17,9 9 5 SSW 1014,4 - 0,0
17.07.2019 08:00:00 19,9 17,7 13 7 E 1013,5 - -
17.07.2019 07:00:00 19,9 17,7 16 9 E 1012,8 - 0,0
17.07.2019 06:00:00 20,2 17,8 4 2 N 1015,1 - 0,0
17.07.2019 05:00:00 20,3 17,7 4 2 WNW 1015,6 - -
17.07.2019 04:00:00 21,0 17,4 11 6 SE 1014,7 - 0,0
17.07.2019 03:00:00 21,2 17,2 13 7 E 1014,1 - 0,0
17.07.2019 02:00:00 21,5 17,3 15 8 E 1013,8 - -
17.07.2019 01:00:00 21,8 16,7 15 8 E 1014,4 - 0,0
17.07.2019 00:00:00 22,5 13,6 11 6 E 1014,2 - 0,0
16.07.2019 23:00:00 23,0 10,8 9 5 E 1013,9 - -
16.07.2019 22:00:00 24,5 10,0 8 4 E 1012,8 - 0,0
16.07.2019 21:00:00 27,1 9,0 4 2 SSE 1011,8 - 0,0
16.07.2019 20:00:00 28,7 7,3 4 2 SSW 1011,4 - -
16.07.2019 19:00:00 30,2 8,6 8 4 SW 1011,0 - 0,0
16.07.2019 18:00:00 30,5 7,6 5 3 SSW 1011,3 - 0,0
16.07.2019 17:00:00 30,0 9,5 9 5 SW 1012,0 45 -
16.07.2019 16:00:00 29,4 10,0 8 4 SSE 1012,7 - 0,0
16.07.2019 15:00:00 28,3 10,0 9 5 S 1013,2 - 0,0
16.07.2019 14:00:00 27,4 12,2 9 5 ESE 1013,8 30 -
16.07.2019 13:00:00 26,2 10,8 11 6 SSE 1014,5 - 0,0
16.07.2019 12:00:00 24,6 12,9 13 7 SE 1014,9 - 0,0
16.07.2019 11:00:00 22,9 12,5 16 9 SE 1015,4 30 -
16.07.2019 10:00:00 21,7 14,3 15 8 SE 1015,5 - 0,0
16.07.2019 09:00:00 19,6 14,2 11 6 SE 1016,0 - 0,0
16.07.2019 08:00:00 17,6 13,9 8 4 ESE 1016,1 - -
16.07.2019 07:00:00 15,6 13,1 11 6 ESE 1016,2 - 0,0
16.07.2019 06:00:00 14,4 12,4 11 6 E 1016,2 - 0,0
16.07.2019 05:00:00 14,3 11,4 5 3 ESE 1016,0 - -
16.07.2019 04:00:00 14,5 11,5 2 1 ESE 1016,1 - 0,0
16.07.2019 03:00:00 15,2 11,2 2 1 E 1015,9 - 0,0
16.07.2019 02:00:00 16,7 11,4 4 2 W 1014,9 - -
16.07.2019 01:00:00 18,2 11,3 8 4 W 1014,0 - 0,0
16.07.2019 00:00:00 19,6 11,1 8 4 W 1013,0 - 0,0
15.07.2019 23:00:00 21,2 10,4 5 3 W 1012,4 - -
15.07.2019 22:00:00 22,8 10,2 8 4 W 1011,1 - 0,0
15.07.2019 21:00:00 25,7 10,7 8 4 WSW 1009,9 - 0,0
15.07.2019 20:00:00 28,5 9,7 11 6 W 1008,5 - -
15.07.2019 19:00:00 29,6 9,7 11 6 W 1007,7 - 0,0
15.07.2019 18:00:00 29,7 9,2 21 11 WSW 1007,8 - 0,0
15.07.2019 17:00:00 30,0 9,0 16 9 WSW 1008,1 70 -
15.07.2019 16:00:00 30,3 9,2 13 7 WSW 1008,2 - 0,0
15.07.2019 15:00:00 29,5 10,6 9 5 WSW 1008,8 - 0,0
15.07.2019 14:00:00 28,3 10,9 8 4 SW 1009,6 75 -
15.07.2019 13:00:00 27,0 11,5 8 4 WSW 1010,3 - 0,0
15.07.2019 12:00:00 25,3 11,8 8 4 W 1010,6 - 0,0
15.07.2019 11:00:00 22,6 13,6 5 3 W 1011,5 - -
15.07.2019 10:00:00 19,7 13,4 8 4 W 1012,1 - 0,0
15.07.2019 09:00:00 17,8 12,9 5 3 WNW 1012,2 - 0,0
15.07.2019 08:00:00 16,5 13,0 8 4 W 1012,1 - -
15.07.2019 07:00:00 14,9 12,4 8 4 W 1012,1 - 0,0
15.07.2019 06:00:00 15,0 11,9 5 3 W 1012,0 - 0,0
15.07.2019 05:00:00 15,3 11,7 5 3 W 1011,6 - -
15.07.2019 04:00:00 15,8 11,6 8 4 WNW 1011,5 - 0,0
15.07.2019 03:00:00 16,6 11,7 8 4 W 1011,7 - 0,0
15.07.2019 02:00:00 17,0 12,1 8 4 W 1011,9 - -
15.07.2019 01:00:00 18,6 12,6 8 4 W 1011,5 - 0,0
15.07.2019 00:00:00 20,1 12,3 8 4 W 1011,0 - 0,0
14.07.2019 23:00:00 21,3 12,7 5 3 W 1010,6 - -
14.07.2019 22:00:00 22,8 13,3 5 3 W 1009,7 - 0,0
14.07.2019 21:00:00 25,6 12,8 8 4 W 1008,5 - 0,0
14.07.2019 20:00:00 27,6 14,2 9 5 W 1007,7 - -
14.07.2019 19:00:00 28,6 13,3 11 6 W 1007,4 - 0,0
14.07.2019 18:00:00 28,4 15,3 11 6 WSW 1007,9 - 0,0
14.07.2019 17:00:00 26,7 19,8 8 4 SSE 1009,0 30 -
14.07.2019 16:00:00 24,9 19,9 5 3 SSW 1009,9 - 0,0
14.07.2019 15:00:00 23,0 19,6 9 5 SSW 1011,0 - 0,0
14.07.2019 14:00:00 20,0 18,1 5 3 W 1012,0 25 -
14.07.2019 13:00:00 18,6 17,1 4 2 N 1013,1 - 0,0
14.07.2019 12:00:00 17,8 17,2 5 3 NW 1013,3 - 0,2
14.07.2019 11:00:00 17,1 16,5 13 7 ESE 1013,5 10 -
14.07.2019 10:00:00 16,8 15,8 8 4 WSW 1013,6 - 20,0
14.07.2019 09:00:00 19,6 17,2 8 4 W 1012,3 - 0,0
14.07.2019 08:00:00 20,9 17,3 4 2 ENE 1011,1 - -
14.07.2019 07:00:00 19,9 16,7 0 0 N 1011,1 - 0,0
14.07.2019 06:00:00 19,1 17,1 8 4 NW 1011,3 - 0,0
14.07.2019 05:00:00 20,5 15,9 11 6 SE 1011,3 - -
14.07.2019 04:00:00 21,0 16,4 8 4 NE 1010,6 - 0,0
14.07.2019 03:00:00 22,0 16,3 4 2 WNW 1011,3 - 0,0
14.07.2019 02:00:00 22,8 15,4 9 5 ESE 1011,5 - -
14.07.2019 01:00:00 23,8 15,6 5 3 E 1011,5 - 0,0
14.07.2019 00:00:00 24,8 15,1 13 7 ESE 1010,3 - 0,0
13.07.2019 23:00:00 26,5 13,9 21 11 E 1009,2 - -
13.07.2019 22:00:00 27,5 13,4 8 4 SW 1009,7 - 0,0
13.07.2019 21:00:00 28,7 12,6 18 10 ENE 1007,7 - 0,0
13.07.2019 20:00:00 30,3 11,8 11 6 S 1009,7 - -
13.07.2019 19:00:00 32,2 11,4 22 12 S 1008,8 - 0,0
13.07.2019 18:00:00 35,5 12,5 8 4 NW 1008,0 - 0,0
13.07.2019 17:00:00 35,0 12,0 9 5 NW 1008,9 40 -
13.07.2019 16:00:00 32,8 11,3 8 4 WNW 1010,0 - 0,0
13.07.2019 15:00:00 32,9 14,5 8 4 WSW 1012,0 - 0,0
13.07.2019 14:00:00 31,6 15,1 5 3 WNW 1011,6 45 -
13.07.2019 13:00:00 31,2 16,4 8 4 SSE 1011,7 - 0,0
13.07.2019 12:00:00 29,5 16,3 5 3 SSE 1013,1 - 0,0
13.07.2019 11:00:00 28,0 16,6 15 8 ESE 1013,1 40 -
13.07.2019 10:00:00 26,0 16,5 15 8 E 1013,5 - 0,0
13.07.2019 09:00:00 23,8 14,5 8 4 E 1014,6 - 0,0
13.07.2019 08:00:00 20,9 12,1 2 1 ESE 1015,3 - -
13.07.2019 07:00:00 18,6 8,8 5 3 ESE 1015,3 - 0,0
13.07.2019 06:00:00 19,3 9,8 4 2 NNE 1014,7 - 0,0
13.07.2019 05:00:00 20,9 11,0 5 3 W 1013,9 - -
13.07.2019 04:00:00 22,7 9,5 8 4 W 1013,6 - 0,0
13.07.2019 03:00:00 23,5 10,2 8 4 NW 1013,5 - 0,0
13.07.2019 02:00:00 24,4 9,2 5 3 NW 1013,6 - -
13.07.2019 01:00:00 25,0 8,9 8 4 WSW 1013,3 - 0,0
13.07.2019 00:00:00 26,9 6,3 4 2 W 1012,7 - 0,0
12.07.2019 23:00:00 27,8 7,1 4 2 WNW 1012,5 - -
12.07.2019 22:00:00 29,3 8,4 4 2 NW 1012,0 - 0,0
12.07.2019 21:00:00 31,3 8,3 4 2 NW 1011,1 - 0,0
12.07.2019 20:00:00 33,6 6,8 9 5 NW 1010,2 - -
12.07.2019 19:00:00 36,2 5,5 11 6 WNW 1009,7 - 0,0
12.07.2019 18:00:00 36,0 6,2 13 7 WNW 1009,7 - 0,0
12.07.2019 17:00:00 37,0 8,8 9 5 W 1010,2 75 -
12.07.2019 16:00:00 36,0 10,2 18 10 WSW 1010,9 - 0,0
12.07.2019 15:00:00 35,3 10,4 11 6 WSW 1011,4 - 0,0
12.07.2019 14:00:00 34,1 11,3 8 4 W 1012,3 - -
12.07.2019 13:00:00 32,3 12,0 8 4 WSW 1013,2 - 0,0
12.07.2019 12:00:00 30,8 12,7 8 4 SSW 1013,8 - 0,0
12.07.2019 11:00:00 28,9 14,3 9 5 SSE 1014,2 55 -
12.07.2019 10:00:00 27,2 14,2 13 7 SE 1014,5 - 0,0
12.07.2019 09:00:00 25,1 12,0 8 4 ESE 1014,8 - 0,0
12.07.2019 08:00:00 22,9 10,3 9 5 ENE 1015,0 - -
12.07.2019 07:00:00 20,6 8,6 5 3 E 1015,1 - 0,0

tt = temperature
td = dewpoint
ff = wind speed
dd = wind direction
ppp = reduced air pressure
vv = visibility
rr = precipitation

Next stations